Weather History for Stafford, VA

Change the Weather History Date:

Thursday, February 14, 2013

  Actual Average (KNYG) Record (KNYG)
Temperature  
Mean Temperature 38 °F -  
Max Temperature 50 °F 46 °F 68 °F (2011)
Min Temperature 26 °F 29 °F 21 °F (2002)
Degree Days  
Heating Degree Days 27    
Moisture  
Dew Point 29 °F    
Average Humidity 77    
Maximum Humidity 100    
Minimum Humidity 40    
Precipitation  
Precipitation 0.05 in - - ()
Sea Level Pressure  
Sea Level Pressure 30.00 in    
Wind  
Wind Speed 1 mph (WSW)    
Max Wind Speed 6 mph    
Max Gust Speed -    
Visibility 7 miles    
Events      
Averages and records for this station are not official NWS values.
T = Trace of Precipitation, MM = Missing Value Source: NWS Daily Summary

Daily Weather History Graph

Daily Weather History Graph

Search for Another Location

Airport:

Trip Planner

Search our weather history database for the weather conditions in past years. The results will help you decide how hot, cold, wet, or windy it might be!

Date:

Astronomy

Feb. 14, 2013 Rise Set
Actual Time 7:01 AM EST 5:47 PM EST
Civil Twilight 6:34 AM EST 6:14 PM EST
Nautical Twilight 6:03 AM EST 6:45 PM EST
Astronomical Twilight 5:32 AM EST 7:16 PM EST
Moon 9:06 AM EST (2/14) 10:43 PM EST (2/14)
Length of Visible Light 11h 40m
Length of Day
10h 45m
Waxing Crescent, 21% of the Moon is Illuminated
Feb 14
Waxing Crescent
Feb 17
First Quarter
Feb 25
Full
Mar 4
Last Quarter
Mar 11
New

Hourly Weather History & Observations

Time (EST) Temp. Windchill Dew Point Humidity Pressure Visibility Wind Dir Wind Speed Gust Speed Precip Events Conditions
12:15 AM 33.8 °F 30.8 °F 33.3 °F 98% 29.84 in 5.0 mi NW 3.5 mph - N/A   Scattered Clouds
12:35 AM 32.9 °F 28.5 °F 32.2 °F 97% 29.85 in 5.0 mi NW 4.6 mph - N/A   Scattered Clouds
12:55 AM 33.3 °F - 33.1 °F 99% 29.86 in 4.0 mi Calm Calm - N/A   Mostly Cloudy
1:15 AM 33.1 °F - 32.7 °F 99% 29.86 in 4.0 mi Calm Calm - N/A   Scattered Clouds
1:35 AM 32.2 °F - 32.0 °F 99% 29.87 in 1.8 mi Calm Calm - N/A   Mostly Cloudy
1:55 AM 32.0 °F - 32.0 °F 100% 29.88 in 1.0 mi Calm Calm - N/A   Mostly Cloudy
2:15 AM 31.1 °F - 31.1 °F 100% 29.89 in 1.8 mi Calm Calm - N/A   Mist
2:35 AM 31.1 °F - 31.1 °F 100% 29.89 in 0.8 mi Calm Calm - N/A   Mist
2:55 AM 31.1 °F - 31.1 °F 100% 29.90 in 0.8 mi Calm Calm - N/A   Mist
3:15 AM 29.5 °F - 29.5 °F 100% 29.91 in 2.0 mi Calm Calm - N/A   Clear
3:35 AM 30.0 °F - 30.0 °F 100% 29.92 in 1.2 mi Calm Calm - N/A   Mist
3:55 AM 29.8 °F - 29.8 °F 100% 29.93 in 1.5 mi Calm Calm - N/A   Mist
4:15 AM 29.3 °F - 29.3 °F 100% 29.93 in 1.2 mi Calm Calm - N/A   Mist
4:35 AM 29.1 °F - 29.1 °F 100% 29.94 in 1.5 mi Calm Calm - N/A   Mist
4:55 AM 28.9 °F - 28.9 °F 100% 29.96 in 2.0 mi Calm Calm - N/A   Clear
5:15 AM 28.0 °F - 28.0 °F 100% 29.96 in 2.0 mi Calm Calm - N/A   Clear
5:35 AM 29.8 °F - 29.8 °F 100% 29.97 in 2.5 mi Calm Calm - N/A   Clear
5:55 AM 26.8 °F - 26.8 °F 100% 29.97 in 4.0 mi Calm Calm - N/A   Clear
6:15 AM 28.8 °F - 28.8 °F 100% 29.98 in 3.0 mi Calm Calm - N/A   Clear
6:35 AM 28.4 °F - 28.4 °F 100% 29.99 in 3.0 mi Calm Calm - N/A   Clear
6:55 AM 27.7 °F - 27.7 °F 100% 30.00 in 2.0 mi Calm Calm - N/A   Clear
7:15 AM 27.3 °F - 27.3 °F 100% 30.01 in 2.0 mi Calm Calm - N/A   Clear
7:35 AM 26.6 °F - 26.4 °F 99% 30.02 in 3.0 mi Calm Calm - N/A   Clear
7:55 AM 28.0 °F - 28.0 °F 100% 30.03 in 2.5 mi Calm Calm - N/A   Clear
8:15 AM 30.7 °F - 30.7 °F 100% 30.04 in 2.0 mi Calm Calm - N/A   Clear
8:35 AM 32.0 °F - 32.0 °F 100% 30.05 in 1.8 mi Calm Calm - N/A   Mist
8:55 AM 34.7 °F - 34.7 °F 100% 30.05 in 3.0 mi Calm Calm - N/A   Clear
9:15 AM 36.5 °F - 35.1 °F 95% 30.05 in 7.0 mi Calm Calm - N/A   Clear
9:35 AM 38.5 °F - 34.9 °F 87% 30.05 in 10.0 mi Calm Calm - N/A   Clear
10:15 AM 42.1 °F - 33.1 °F 70% 30.07 in 10.0 mi Calm Calm - N/A   Clear
10:55 AM 43.7 °F - 32.7 °F 65% 30.07 in 10.0 mi Calm Calm - N/A   Clear
11:15 AM 44.6 °F 41.4 °F 30.9 °F 59% 30.06 in 10.0 mi NNW 5.8 mph - N/A   Clear
11:35 AM 45.5 °F 44.2 °F 30.7 °F 56% 30.06 in 10.0 mi North 3.5 mph - N/A   Clear
11:55 AM 46.4 °F 43.5 °F 31.3 °F 56% 30.06 in 10.0 mi WSW 5.8 mph - N/A   Clear
12:15 PM 47.1 °F - 31.3 °F 54% 30.05 in 10.0 mi North 3.5 mph - N/A   Clear
12:35 PM 47.3 °F - 30.6 °F 52% 30.05 in 10.0 mi West 3.5 mph - N/A   Clear
12:55 PM 48.0 °F - 30.2 °F 50% 30.04 in 10.0 mi West 5.8 mph - N/A   Clear
1:15 PM 48.6 °F - 29.1 °F 47% 30.03 in 10.0 mi WNW 3.5 mph - N/A   Clear
1:35 PM 48.9 °F - 29.5 °F 47% 30.03 in 10.0 mi Calm Calm - N/A   Clear
1:55 PM 48.7 °F - 27.3 °F 43% 30.02 in 10.0 mi NE 3.5 mph - N/A   Clear
2:15 PM 49.6 °F - 28.2 °F 44% 30.02 in 10.0 mi West 3.5 mph - N/A   Clear
2:35 PM 49.8 °F - 29.3 °F 45% 30.02 in 10.0 mi NE 4.6 mph - N/A   Clear
2:55 PM 50.2 °F - 26.4 °F 40% 30.02 in 10.0 mi West 5.8 mph - N/A   Clear
3:15 PM 50.5 °F - 27.9 °F 42% 30.02 in 10.0 mi WSW 3.5 mph - N/A   Clear
3:35 PM 50.4 °F - 27.0 °F 40% 30.02 in 10.0 mi SSW 4.6 mph - N/A   Clear
3:55 PM 50.4 °F - 27.5 °F 41% 30.01 in 10.0 mi SW 5.8 mph - N/A   Clear
4:15 PM 50.2 °F - 27.1 °F 41% 30.00 in 10.0 mi South 3.5 mph - N/A   Clear
4:35 PM 50.0 °F - 27.1 °F 41% 30.01 in 10.0 mi SW 3.5 mph - N/A   Clear
4:55 PM 49.8 °F - 27.1 °F 41% 30.02 in 10.0 mi Calm Calm - N/A   Clear
5:15 PM 48.9 °F - 26.8 °F 42% 30.02 in 10.0 mi South 5.8 mph - N/A   Clear
5:35 PM 47.7 °F - 26.2 °F 43% 30.02 in 10.0 mi South 4.6 mph - N/A   Clear
5:55 PM 47.3 °F - 25.9 °F 43% 30.03 in 10.0 mi SSE 3.5 mph - N/A   Clear
6:15 PM 46.2 °F 45.0 °F 26.2 °F 46% 30.03 in 10.0 mi SE 3.5 mph - N/A   Clear
6:35 PM 43.2 °F 40.5 °F 27.7 °F 54% 30.03 in 10.0 mi SE 4.6 mph - N/A   Clear
6:55 PM 41.2 °F 39.2 °F 29.1 °F 62% 30.03 in 10.0 mi SE 3.5 mph - N/A   Clear
7:15 PM 39.2 °F - 29.5 °F 68% 30.03 in 10.0 mi Calm Calm - N/A   Clear
7:35 PM 36.5 °F - 29.3 °F 75% 30.04 in 10.0 mi Calm Calm - N/A   Clear
7:55 PM 34.7 °F - 28.9 °F 79% 30.04 in 10.0 mi Calm Calm - N/A   Clear
8:15 PM 34.7 °F - 28.9 °F 79% 30.05 in 10.0 mi Calm Calm - N/A   Clear
8:35 PM 34.9 °F - 28.6 °F 78% 30.05 in 10.0 mi Calm Calm - N/A   Clear
8:55 PM 32.9 °F - 28.6 °F 84% 30.05 in 10.0 mi Calm Calm - N/A   Clear
9:15 PM 32.4 °F - 28.6 °F 86% 30.05 in 10.0 mi Calm Calm - N/A   Clear
9:35 PM 30.2 °F - 28.0 °F 92% 30.05 in 10.0 mi Calm Calm - N/A   Clear
9:55 PM 30.9 °F - 28.2 °F 90% 30.05 in 10.0 mi Calm Calm - N/A   Clear
10:15 PM 32.2 °F - 28.0 °F 85% 30.05 in 10.0 mi Calm Calm - N/A   Clear
10:35 PM 31.1 °F - 28.2 °F 89% 30.05 in 10.0 mi Calm Calm - N/A   Clear
10:55 PM 29.5 °F - 27.7 °F 93% 30.06 in 10.0 mi Calm Calm - N/A   Clear
11:15 PM 29.8 °F - 27.5 °F 91% 30.06 in 10.0 mi Calm Calm - N/A   Clear
11:35 PM 33.6 °F - 29.8 °F 86% 30.07 in 10.0 mi Calm Calm - N/A   Clear
11:55 PM 35.2 °F - 30.9 °F 84% 30.06 in 10.0 mi Calm Calm - N/A   Clear